Notices

What’s New in latest Release from January 14th 2021:

·       In Historical Hourly Data Report, users can switch between Local Standard Time (LST) and Universal Time Coordinates (UTC) time.

·       In Historical Hourly Data Report, we have an addition of a new column to display hourly precipitation data for the stations where the data are available, from 2001 onwards.

·       Expanded the Search Options of the Canadian Historical Weather Radar, users now able to select 24 hours (1 image every hour) image viewing duration.

Please note that the IDF dataset is available through this link: Intensity-Duration-Frequency (IDF) Files .

Hourly Data Report for January 07, 2005

SHERBROOKE A
QUEBEC

45°26'00.000" N
71°41'00.000" W
241.40 m
7028124
71610
YSC

Download Data

Hourly Data (January 2005)
Hourly Data Report for January 7, 2005
TIME
LST
Temp Definition
°C
Dew Point Definition
°C
Rel Hum Definition
%
Precip. Amount Definition
mm

Wind Dir Definition
10's deg

Wind Spd Definition
km/h
Visibility Definition
km
Stn Press Definition
kPa
Hmdx Definition


Wind Chill Definition


Weather Definition


00:00 -4.6 -6.5 87     0 15.0 97.62     Snow
01:00 -4.1 -5.8 88   28 6 2.1 97.65   -7 Snow
02:00 -2.9 -4.3 90   26 15 2.3 97.69   -8 Snow
03:00 -2.8 -4.6 87   28 20 4.0 97.75   -9 Snow
04:00 -3.8 -6.7 80   28 19 5.6 97.80   -10 Snow
05:00 -4.6 -7.2 82   27 11 12.9 97.89   -9 Snow
06:00 -5.5 -7.8 84   29 22 2.6 98.03   -13 Snow
07:00 -6.5 -8.9 83   28 32 4.0 98.24   -15 Snow
08:00 -7.3 -10.6 77   26 30 12.9 98.41   -16 Snow
09:00 -8.7 -12.1 76   27 22 12.9 98.69   -17 Snow
10:00 -9.1 -12.3 78   26 22 16.1 98.93   -17 Snow
11:00 -9.0 -12.9 73   26 17 19.3 98.99   -16 Mostly Cloudy
12:00 -7.8 -11.8 73   27 17 19.3 99.05   -14 Mostly Cloudy
13:00 -7.8 -12.5 69   27 22 24.1 99.16   -15 Mostly Cloudy
14:00 -6.6 -13.2 59   24 9 24.1 99.24   -11 Mainly Clear
15:00 -6.2 -14.1 54   25 9 24.1 99.37   -10 Mainly Clear
16:00 -7.1 -13.6 60   20 4 24.1 99.38   -9 Mainly Clear
17:00 -8.8 -14.0 66   23 11 24.1 99.53   -14 Mainly Clear
18:00 -9.2 -14.6 65   19 6 15.0 99.62   -13  
19:00 -10.3 -14.6 71     0 15.0 99.67      
20:00 -8.7 -13.8 67   21 7 15.0 99.70   -13  
21:00 -10.2 -13.6 76   6 6 15.0 99.69   -14  
22:00 -10.1 -12.9 80   5 6 15.0 99.69   -14  
23:00 -8.7 -12.4 75   6 4 15.0 99.64   -11  

Notes on Data Quality.

Legend

  • E = Estimated
  • M = Missing
  • NA = Not Available*
  • [empty] = Indicates an unobserved value
Date modified: